FW9914 Weather Reports


time (UTC)temp
C
wind
direction
speed
KPH
gust
KPH
rain 1hr
cm
rain 24hr
cm
rain mn
cm
humidity
%
barometer
mb
20260504060130 4 157 0.0 0.0 0.00 0.00 0.00 70 1016.1
20260504050114 7 157 0.0 0.0 0.00 0.00 0.00 64 1015.7
20260504040109 10 157 0.0 0.0 0.00 0.00 0.00 49 1014.9
20260504030125 10 157 0.0 0.0 0.00 0.00 0.00 52 1013.1
20260504020144 12 157 0.0 0.0 0.00 0.00 0.00 45 1012.4
20260504010132 13 157 0.0 0.0 0.00 0.00 0.00 45 1011.8
20260504000125 17 157 0.0 0.0 0.00 0.00 0.00 37 1011.1
20260503230132 17 157 0.0 0.0 0.00 0.00 0.00 36 1010.6
20260503220107 19 158 0.0 0.0 0.00 0.00 0.00 33 1010.6
20260503210129 20 157 0.0 0.0 0.00 0.00 0.00 31 1010.6
20260503200202 21 159 0.0 0.0 0.00 0.00 0.00 29 1010.8
20260503190156 20 157 0.0 0.0 0.00 0.00 0.00 30 1011.3
20260503170137 19 158 0.0 0.0 0.00 0.00 0.00 31 1011.5
20260503160128 17 158 0.0 0.0 0.00 0.00 0.00 36 1011.9
20260503150116 15 158 0.0 0.0 0.00 0.00 0.00 38 1012.1
20260503120149 5 164 0.0 0.0 0.00 0.00 0.00 58 1011.7
20260503110110 5 164 0.0 0.0 0.00 0.00 0.00 61 1012.3
20260503100129 5 164 0.0 0.0 0.00 0.00 0.00 62 1012.3
20260503090154 6 164 0.0 0.0 0.00 0.00 0.00 50 1012.3
20260503080204 7 164 0.0 0.0 0.00 0.00 0.00 47 1012.3
20260503070114 8 164 0.0 0.0 0.00 0.00 0.00 53 1012.2